Regional Weather Roundup
Issued by NWS

Home | Current Version | Previous Version | Text Only | Print | Product List | Glossary Off
Versions: 1 2 3 4 5 6 7 8 9 10 11 12 13 14 15 16 17 18 19 20 21 22 23 24 25 26 27 28 29 30 31 32 33 34 35 36 37 38 39 40 41 42 43 44 45 46 47 48 49 50

000
ASUS45 KBOI 060210
RWRID
WEATHER ROUNDUP FOR IDAHO
NATIONAL WEATHER SERVICE BOISE ID
800 PM MDT TUE MAY 05 2015

NOTE: "FAIR" INDICATES FEW OR NO CLOUDS BELOW 12000 FEET
WITH NO SIGNIFICANT WEATHER AND/OR OBSTRUCTIONS TO VISIBILITY

IDZ012-014-060300-
SOUTHWEST IDAHO


CITY           SKY/WX    TMP DP  RH WIND       PRES   REMARKS
BOISE          CLEAR     67  18  15 NW13      29.78R
CALDWELL       CLEAR     64  23  20 NW15G21   29.81R
MOUNTAIN HOME  CLEAR     68  19  15 NW21G28   29.76S
$$

IDZ016-017-060300-
SOUTHCENTRAL IDAHO


CITY           SKY/WX    TMP DP  RH WIND       PRES   REMARKS
BURLEY         CLOUDY    64  29  26 W10       29.75S
JEROME         CLEAR     63  22  20 SW17      29.77R
TWIN FALLS     CLEAR     62  23  22 W12       29.79R
$$

IDZ019>023-060300-
SOUTHEAST IDAHO


CITY           SKY/WX    TMP DP  RH WIND       PRES   REMARKS
IDAHO FALLS    CLOUDY    54  47  77 E14       29.78F
POCATELLO      CLEAR     60  43  53 NE14      29.78R
REXBURG        CLOUDY    51  46  83 NE13      29.79F
$$

IDZ006-010-011-018-031-032-060300-
CENTRAL IDAHO MOUNTAINS


CITY           SKY/WX    TMP DP  RH WIND       PRES   REMARKS
MCCALL         PTCLDY    54  26  34 NW10      29.85R
HAILEY         PTCLDY    61  25  25 W7        29.78R
STANLEY          N/A     56  23  27 NW6       29.85R
SALMON           N/A     55  45  67 NW5       29.78R
CHALLIS        PTCLDY    65  24  21 W10       29.73R
$$

IDZ002-004-006-007-026-060300-
NORTHERN IDAHO


CITY           SKY/WX    TMP DP  RH WIND       PRES   REMARKS
LEWISTON       CLOUDY    61  26  26 W10       29.92R
LOWELL           N/A     55  40  56 CALM      29.89S
COEUR D`ALENE  MOCLDY    55  25  30 S10       29.92S
MULLAN PASS    MOCLDY    39  22  50 VRB6      29.93R WCI  35
$$



USA.gov is the U.S. government's official web portal to all federal, state and local government web resources and services.